K2IE-13 Weather Reports


Display with metric or nautical units.
time (UTC)temp
F
wind
direction
speed
MPH
gust
MPH
rain 1hr
in
rain 24hr
in
rain mn
in
humidity
%
barometer
mb
20210615011304 68 124 0.0 2.0 0.01 0.01 0.01 67 1007.9
20210615010304 67 62 0.0 1.0 0.00 0.00 0.00 67 1007.7
20210615005305 68 72 0.0 0.0 0.00 0.00 0.00 67 1007.4
20210615004304 68 276 0.0 0.0 0.00 0.00 0.00 66 1007.2
20210615003303 68 279 0.0 2.0 0.00 0.00 0.00 66 1007.0
20210615002306 69 290 0.0 1.0 0.00 0.00 0.00 67 1007.1
20210615001304 70 289 0.0 2.0 0.00 0.00 0.00 67 1007.1
20210615000304 70 295 0.0 1.0 0.00 0.00 0.00 67 1006.8
20210614235305 70 288 0.0 1.0 0.00 0.00 0.00 67 1006.9
20210614234304 71 287 0.0 1.0 0.00 0.00 0.00 67 1007.0
20210614233307 71 287 0.0 1.0 0.00 0.00 0.00 67 1007.2
20210614232308 72 289 0.0 0.0 0.00 0.00 0.00 67 1006.9
20210614231303 72 289 0.0 0.0 0.00 0.00 0.00 66 1007.3
20210614230304 73 289 0.0 0.0 0.00 0.00 0.00 63 1007.5
20210614225305 73 289 0.0 1.0 0.00 0.00 0.00 62 1007.6
20210614224304 74 289 0.0 1.0 0.00 0.00 0.00 61 1007.5
20210614223304 74 289 0.0 1.0 0.00 0.00 0.00 60 1007.5
20210614222305 75 289 0.0 1.0 0.00 0.00 0.00 59 1007.6
20210614221304 75 287 0.0 1.0 0.00 0.00 0.00 58 1007.5
20210614220304 76 287 0.0 1.0 0.00 0.00 0.00 57 1007.8
20210614215306 76 132 0.0 3.0 0.00 0.00 0.00 57 1007.7
20210614214304 77 137 0.0 3.0 0.00 0.00 0.00 56 1007.7
20210614213304 77 120 0.0 2.0 0.00 0.00 0.00 56 1007.9
20210614212305 77 326 0.0 3.0 0.00 0.00 0.00 56 1007.9
20210614211304 77 110 0.0 3.0 0.00 0.00 0.00 56 1007.7
20210614210304 77 118 1.0 3.0 0.00 0.00 0.00 55 1007.8
20210614205305 77 148 1.0 3.0 0.00 0.00 0.00 56 1007.8
20210614204304 76 120 0.0 5.0 0.00 0.00 0.00 58 1007.8
20210614203303 76 62 0.0 7.0 0.00 0.00 0.00 58 1007.9
20210614202305 75 34 1.0 6.0 0.00 0.00 0.00 58 1008.1
20210614201303 75 109 1.0 6.0 0.00 0.00 0.00 58 1008.1
20210614200304 76 143 2.0 3.0 0.00 0.00 0.00 56 1008.3
20210614195306 78 287 0.0 1.0 0.00 0.00 0.00 54 1008.2
20210614194304 78 143 0.0 1.0 0.00 0.00 0.00 53 1008.3
20210614193304 78 314 0.0 1.0 0.00 0.00 0.00 52 1008.4
20210614192306 78 284 0.0 1.0 0.00 0.00 0.00 53 1008.5
20210614191304 77 284 0.0 2.0 0.00 0.00 0.00 54 1008.6
20210614190304 77 284 0.0 3.0 0.00 0.00 0.00 53 1008.6
20210614185306 77 284 0.0 3.0 0.00 0.00 0.00 52 1008.8
20210614184304 78 303 1.0 3.0 0.00 0.00 0.00 52 1008.9
20210614183304 78 297 0.0 1.0 0.00 0.00 0.00 52 1009.0
20210614182306 78 297 1.0 3.0 0.00 0.00 0.00 51 1008.9
20210614181304 78 290 1.0 2.0 0.00 0.00 0.00 52 1009.0
20210614180304 77 187 0.0 3.0 0.00 0.00 0.00 53 1009.2
20210614175305 77 257 0.0 1.0 0.00 0.00 0.00 52 1009.3
20210614174304 77 279 0.0 2.0 0.00 0.00 0.00 52 1009.4
20210614173304 76 304 0.0 3.0 0.00 0.00 0.00 52 1009.5
20210614172305 76 288 0.0 1.0 0.00 0.00 0.00 52 1009.8
20210614171303 76 288 1.0 3.0 0.00 0.00 0.00 51 1010.0
20210614170304 76 283 1.0 3.0 0.00 0.00 0.00 51 1010.1
20210614165306 76 271 0.0 3.0 0.00 0.00 0.00 51 1010.1
20210614164304 76 299 1.0 5.0 0.00 0.00 0.00 50 1010.2
20210614163304 75 258 1.0 5.0 0.00 0.00 0.00 51 1010.2
20210614162306 75 293 1.0 6.0 0.00 0.00 0.00 49 1010.3
20210614161303 74 276 2.0 6.0 0.00 0.00 0.00 50 1010.3
20210614160304 73 301 1.0 3.0 0.00 0.00 0.00 52 1010.4
20210614155305 72 289 1.0 3.0 0.00 0.00 0.00 53 1010.5
20210614154304 72 288 2.0 5.0 0.00 0.00 0.00 54 1010.5
20210614153304 71 290 0.0 2.0 0.00 0.00 0.00 57 1010.4
20210614152305 70 285 0.0 2.0 0.00 0.00 0.00 58 1010.7
20210614151304 69 292 0.0 1.0 0.00 0.00 0.00 60 1010.8
20210614150303 69 96 0.0 0.0 0.00 0.00 0.00 63 1010.9
20210614145305 69 97 0.0 0.0 0.00 0.00 0.00 63 1011.0
20210614144304 69 113 0.0 1.0 0.00 0.00 0.00 61 1010.9
20210614143304 69 116 0.0 1.0 0.00 0.00 0.00 61 1011.0
20210614142305 68 116 0.0 1.0 0.00 0.00 0.00 63 1011.0
20210614141304 68 116 0.0 0.0 0.00 0.00 0.00 63 1011.0
20210614140303 68 116 0.0 1.0 0.00 0.00 0.00 62 1011.1
20210614135306 68 275 0.0 1.0 0.00 0.00 0.00 61 1011.2
20210614134303 68 283 0.0 1.0 0.00 0.00 0.00 61 1011.2
20210614133304 68 282 0.0 1.0 0.00 0.00 0.00 61 1011.2
20210614132305 69 283 0.0 1.0 0.00 0.00 0.00 60 1011.1
20210614131304 69 281 0.0 1.0 0.00 0.00 0.00 59 1011.1
20210614130303 68 142 0.0 2.0 0.00 0.00 0.00 60 1011.0
20210614125305 68 311 0.0 1.0 0.00 0.00 0.00 61 1011.1
20210614124303 67 288 0.0 3.0 0.00 0.00 0.00 61 1011.1
20210614123304 67 288 0.0 1.0 0.00 0.00 0.00 61 1011.2
20210614122306 67 288 0.0 1.0 0.00 0.00 0.00 62 1011.2
20210614121303 67 117 0.0 1.0 0.00 0.00 0.00 62 1011.0
20210614120303 67 115 0.0 1.0 0.00 0.00 0.00 62 1011.1
20210614115305 66 141 0.0 0.0 0.00 0.00 0.00 63 1011.1
20210614114303 66 141 0.0 0.0 0.00 0.00 0.00 63 1011.2
20210614113304 66 141 0.0 0.0 0.00 0.00 0.00 64 1011.3
20210614112305 66 141 0.0 1.0 0.00 0.00 0.00 64 1011.3
20210614111304 66 151 0.0 0.0 0.00 0.00 0.00 64 1011.4
20210614110304 65 283 0.0 1.0 0.00 0.00 0.00 64 1011.4
20210614105305 65 283 0.0 1.0 0.00 0.00 0.00 64 1011.3
20210614104303 65 286 0.0 0.0 0.00 0.00 0.00 64 1011.2
20210614103304 65 285 0.0 1.0 0.00 0.00 0.00 63 1011.3
20210614102305 65 276 0.0 1.0 0.00 0.00 0.00 63 1011.2
20210614101303 65 275 0.0 1.0 0.00 0.00 0.00 63 1011.3
20210614100304 65 290 0.0 1.0 0.00 0.00 0.00 64 1011.3
20210614095305 65 289 0.0 1.0 0.00 0.00 0.00 63 1011.5
20210614094304 65 290 0.0 0.0 0.00 0.00 0.00 64 1011.6
20210614093304 65 290 0.0 0.0 0.00 0.00 0.00 63 1011.5
20210614092305 65 290 0.0 1.0 0.00 0.00 0.00 63 1011.5
20210614091304 65 290 0.0 1.0 0.00 0.00 0.00 63 1011.4
20210614090304 65 290 0.0 1.0 0.00 0.00 0.00 64 1011.3
20210614085305 65 290 0.0 1.0 0.00 0.00 0.00 64 1011.3
20210614084304 65 290 0.0 1.0 0.00 0.00 0.00 64 1011.1
20210614083304 65 295 0.0 2.0 0.00 0.00 0.00 64 1010.7
20210614082305 65 284 0.0 1.0 0.00 0.00 0.00 64 1010.5
20210614081304 65 277 0.0 1.0 0.00 0.00 0.00 64 1010.9
20210614080304 65 145 0.0 0.0 0.00 0.00 0.00 64 1010.7
20210614075305 65 283 0.0 1.0 0.00 0.00 0.00 64 1011.0
20210614074304 64 293 0.0 1.0 0.00 0.00 0.00 64 1011.1
20210614073303 64 293 0.0 1.0 0.00 0.00 0.00 64 1011.0
20210614072305 64 293 0.0 3.0 0.00 0.00 0.00 64 1010.6
20210614071304 65 287 1.0 2.0 0.00 0.00 0.00 64 1010.7
20210614070304 65 288 0.0 1.0 0.00 0.00 0.00 64 1010.8
20210614065305 65 133 0.0 3.0 0.00 0.00 0.00 64 1011.2
20210614064303 65 266 0.0 1.0 0.00 0.00 0.00 63 1011.6
20210614063304 65 289 0.0 1.0 0.00 0.00 0.00 63 1011.7
20210614062305 65 289 0.0 3.0 0.00 0.00 0.00 63 1011.8
20210614061304 65 280 0.0 3.0 0.00 0.00 0.00 63 1012.0
20210614060305 65 300 0.0 1.0 0.00 0.00 0.00 64 1012.0
20210614055305 65 292 0.0 1.0 0.00 0.00 0.00 63 1012.0
20210614054304 65 281 0.0 0.0 0.00 0.00 0.00 63 1012.1
20210614053303 65 284 0.0 2.0 0.00 0.00 0.00 63 1012.0
20210614052305 65 281 0.0 1.0 0.00 0.00 0.00 63 1012.0
20210614051303 65 282 0.0 1.0 0.00 0.00 0.00 62 1012.1
20210614050304 65 281 0.0 0.0 0.00 0.00 0.00 62 1012.3
20210614045305 65 281 0.0 0.0 0.00 0.00 0.00 62 1012.5
20210614044304 65 282 0.0 1.0 0.00 0.00 0.00 62 1012.6
20210614043304 65 282 0.0 1.0 0.00 0.00 0.00 61 1012.7
20210614042306 66 290 0.0 1.0 0.00 0.00 0.00 60 1012.8
20210614041304 66 284 0.0 1.0 0.00 0.00 0.00 60 1012.7
20210614040303 66 284 0.0 1.0 0.00 0.00 0.00 59 1012.7
20210614035305 66 285 0.0 1.0 0.00 0.00 0.00 59 1012.7
20210614034304 66 288 0.0 1.0 0.00 0.00 0.00 59 1012.9
20210614033304 66 283 0.0 1.0 0.00 0.00 0.00 59 1013.0
20210614032305 66 283 0.0 1.0 0.00 0.00 0.00 58 1013.1
20210614031303 66 281 0.0 1.0 0.00 0.00 0.00 58 1012.7
20210614030304 66 279 0.0 1.0 0.00 0.00 0.00 57 1012.8
20210614025305 66 281 0.0 2.0 0.00 0.00 0.00 58 1012.8
20210614024304 66 278 0.0 1.0 0.00 0.00 0.00 58 1012.9
20210614023304 67 280 0.0 1.0 0.00 0.00 0.00 58 1012.6
20210614022306 67 291 0.0 1.0 0.00 0.00 0.00 58 1012.8
20210614021304 67 286 0.0 1.0 0.00 0.00 0.00 58 1013.0
20210614020304 67 285 0.0 2.0 0.00 0.00 0.00 58 1013.0
20210614015305 67 279 0.0 1.0 0.00 0.00 0.00 58 1013.1
20210614014304 67 283 0.0 2.0 0.00 0.00 0.00 58 1012.9
20210614013304 67 255 1.0 3.0 0.00 0.00 0.00 58 1012.6
20210614012305 67 293 0.0 2.0 0.00 0.00 0.00 58 1012.3